When you browse on this site, cookies collect data to enhance your experience and personalize the content and advertising you see.
Visit our Privacy Policy to learn more. By continuing to use the site, you agree to this use of cookies and data.
  • In Österreich
  • Länderverzeichnis
  • Für 7 Tage
  • Wassertemperatur
  • Wetterkarte
  • News
  • Widgets
  • user-avatar
    Anmelden

    Stündliche Wetter Anan'ivka

    Heute, 23 Januar, Donnerstag

    Zeit Temperatur Niederschläge Wind Luftdruck Luftfeuchtigkeit
    00:00 -4°C° 0.3 mm 8 m/S 725 mmHg 96%
    01:00 -3°C° 0.1 mm 7 m/S 725 mmHg 95%
    02:00 -3°C° 0.1 mm 7 m/S 725 mmHg 94%
    03:00 -3°C° 0.1 mm 7 m/S 725 mmHg 93%
    04:00 -3°C° 0.2 mm 6 m/S 725 mmHg 94%
    05:00 -2°C° 0.2 mm 5 m/S 725 mmHg 95%
    06:00 -4°C° 0.2 mm 5 m/S 725 mmHg 96%
    07:00 -4°C° 0.8 mm 5 m/S 726 mmHg 96%
    08:00 -4°C° 0.8 mm 6 m/S 726 mmHg 95%
    09:00 -4°C° 0.8 mm 6 m/S 727 mmHg 95%
    10:00 -4°C° 0.3 mm 7 m/S 728 mmHg 91%
    11:00 -4°C° 0.3 mm 7 m/S 728 mmHg 86%
    12:00 -5°C° 0.3 mm 8 m/S 729 mmHg 82%
    13:00 -6°C° 0 mm 7 m/S 730 mmHg 81%
    14:00 -6°C° 0 mm 7 m/S 730 mmHg 80%
    15:00 -6°C° 0 mm 7 m/S 731 mmHg 80%
    16:00 -6°C° 0 mm 6 m/S 731 mmHg 81%
    17:00 -6°C° 0 mm 5 m/S 732 mmHg 83%
    18:00 -6°C° 0 mm 5 m/S 733 mmHg 84%
    19:00 -7°C° 0 mm 5 m/S 733 mmHg 83%
    20:00 -7°C° 0 mm 5 m/S 734 mmHg 82%
    21:00 -7°C° 0 mm 5 m/S 735 mmHg 81%
    22:00 -8°C° 0 mm 5 m/S 735 mmHg 82%
    23:00 -8°C° 0 mm 5 m/S 735 mmHg 82%

    Morgen, 24 Januar, Freitag

    Zeit Temperatur Niederschläge Wind Luftdruck Luftfeuchtigkeit
    00:00 -8°C° 0 mm 5 m/S 735 mmHg 82%
    01:00 -8°C° 0 mm 5 m/S 736 mmHg 84%
    02:00 -8°C° 0 mm 5 m/S 736 mmHg 86%
    03:00 -8°C° 0 mm 5 m/S 736 mmHg 88%
    04:00 -8°C° 0.1 mm 5 m/S 737 mmHg 85%
    05:00 -10°C° 0.1 mm 5 m/S 737 mmHg 83%
    06:00 -10°C° 0.1 mm 5 m/S 737 mmHg 80%
    07:00 -10°C° 0 mm 5 m/S 737 mmHg 80%
    08:00 -9°C° 0 mm 4 m/S 738 mmHg 80%
    09:00 -9°C° 0 mm 4 m/S 739 mmHg 80%
    10:00 -8°C° 0 mm 4 m/S 739 mmHg 75%
    11:00 -7°C° 0 mm 4 m/S 740 mmHg 71%
    12:00 -5°C° 0 mm 4 m/S 740 mmHg 67%
    13:00 -5°C° 0 mm 4 m/S 740 mmHg 67%
    14:00 -4°C° 0 mm 4 m/S 740 mmHg 67%
    15:00 -4°C° 0 mm 4 m/S 740 mmHg 67%
    16:00 -5°C° 0 mm 5 m/S 739 mmHg 68%
    17:00 -6°C° 0 mm 5 m/S 739 mmHg 69%
    18:00 -6°C° 0 mm 5 m/S 738 mmHg 71%
    19:00 -6°C° 0 mm 6 m/S 738 mmHg 73%
    20:00 -6°C° 0 mm 6 m/S 738 mmHg 75%
    21:00 -6°C° 0 mm 7 m/S 738 mmHg 78%
    22:00 -6°C° 0 mm 7 m/S 738 mmHg 79%
    23:00 -6°C° 0 mm 7 m/S 737 mmHg 80%

    übermorgen, 25 Januar, Samstag

    Zeit Temperatur Niederschläge Wind Luftdruck Luftfeuchtigkeit
    00:00 -6°C° 0 mm 8 m/S 737 mmHg 81%
    01:00 -6°C° 0 mm 8 m/S 736 mmHg 83%
    02:00 -6°C° 0 mm 8 m/S 736 mmHg 85%
    03:00 -6°C° 0 mm 9 m/S 736 mmHg 87%
    04:00 -6°C° 0 mm 8 m/S 735 mmHg 85%
    05:00 -6°C° 0 mm 8 m/S 735 mmHg 82%
    06:00 -5°C° 0 mm 8 m/S 735 mmHg 80%
    07:00 -5°C° 0 mm 8 m/S 735 mmHg 76%
    08:00 -5°C° 0 mm 8 m/S 735 mmHg 72%
    09:00 -4°C° 0 mm 8 m/S 735 mmHg 68%
    10:00 -4°C° 0 mm 9 m/S 735 mmHg 67%
    11:00 -3°C° 0 mm 9 m/S 735 mmHg 66%
    12:00 -3°C° 0 mm 9 m/S 734 mmHg 65%
    13:00 -1°C° 0 mm 9 m/S 734 mmHg 64%
    14:00 -1°C° 0 mm 8 m/S 734 mmHg 63%
    15:00 -1°C° 0 mm 8 m/S 734 mmHg 62%
    16:00 -1°C° 0 mm 7 m/S 733 mmHg 64%
    17:00 -2°C° 0 mm 7 m/S 733 mmHg 65%
    18:00 -2°C° 0 mm 6 m/S 733 mmHg 66%
    19:00 -2°C° 0 mm 6 m/S 733 mmHg 68%
    20:00 -2°C° 0 mm 6 m/S 733 mmHg 71%
    21:00 -2°C° 0 mm 7 m/S 733 mmHg 73%
    22:00 -3°C° 0 mm 7 m/S 733 mmHg 74%
    23:00 -3°C° 0 mm 7 m/S 733 mmHg 76%

    26 Januar, Sonntag

    Zeit Temperatur Niederschläge Wind Luftdruck Luftfeuchtigkeit
    00:00 -3°C° 0 mm 6 m/S 733 mmHg 77%
    01:00 -3°C° 0 mm 6 m/S 733 mmHg 80%
    02:00 -3°C° 0 mm 6 m/S 733 mmHg 83%
    03:00 -2°C° 0 mm 5 m/S 733 mmHg 85%
    04:00 -2°C° 0 mm 5 m/S 733 mmHg 86%
    05:00 -4°C° 0 mm 5 m/S 733 mmHg 87%
    06:00 -4°C° 0 mm 5 m/S 733 mmHg 87%
    07:00 -4°C° 0 mm 5 m/S 734 mmHg 87%
    08:00 -4°C° 0 mm 5 m/S 735 mmHg 86%
    09:00 -4°C° 0 mm 5 m/S 735 mmHg 86%
    10:00 -3°C° 0 mm 6 m/S 736 mmHg 82%
    11:00 -3°C° 0 mm 6 m/S 736 mmHg 79%
    12:00 -3°C° 0 mm 7 m/S 737 mmHg 76%
    13:00 -3°C° 0 mm 6 m/S 737 mmHg 73%
    14:00 -2°C° 0 mm 6 m/S 738 mmHg 71%
    15:00 -2°C° 0 mm 6 m/S 738 mmHg 69%
    16:00 -2°C° 0 mm 5 m/S 739 mmHg 73%
    17:00 -3°C° 0 mm 4 m/S 739 mmHg 78%
    18:00 -4°C° 0 mm 3 m/S 740 mmHg 83%
    19:00 -4°C° 0 mm 3 m/S 740 mmHg 84%
    20:00 -4°C° 0 mm 3 m/S 741 mmHg 86%
    21:00 -5°C° 0 mm 3 m/S 741 mmHg 87%
    22:00 -4°C° 0 mm 2 m/S 742 mmHg 88%
    23:00 -4°C° 0 mm 2 m/S 742 mmHg 89%

    27 Januar, Montag

    Zeit Temperatur Niederschläge Wind Luftdruck Luftfeuchtigkeit
    00:00 -4°C° 0 mm 2 m/S 742 mmHg 90%
    01:00 -4°C° 0 mm 2 m/S 743 mmHg 89%
    02:00 -4°C° 0 mm 2 m/S 743 mmHg 89%
    03:00 -2°C° 0 mm 1 m/S 744 mmHg 89%
    04:00 -2°C° 0 mm 1 m/S 744 mmHg 87%
    05:00 -2°C° 0 mm 1 m/S 744 mmHg 86%
    06:00 -2°C° 0 mm 1 m/S 744 mmHg 84%
    07:00 -2°C° 0 mm 1 m/S 744 mmHg 82%
    08:00 -2°C° 0 mm 1 m/S 744 mmHg 79%
    09:00 -2°C° 0 mm 1 m/S 745 mmHg 77%
    10:00 -3°C° 0 mm 2 m/S 745 mmHg 72%
    11:00 -2°C° 0 mm 3 m/S 745 mmHg 67%
    12:00 -1°C° 0 mm 3 m/S 745 mmHg 62%
    13:00 0°C° 0 mm 3 m/S 744 mmHg 62%
    14:00 0°C° 0 mm 3 m/S 744 mmHg 62%
    15:00 0°C° 0 mm 3 m/S 744 mmHg 61%
    16:00 -1°C° 0 mm 3 m/S 743 mmHg 65%
    17:00 -2°C° 0 mm 3 m/S 743 mmHg 69%
    18:00 -4°C° 0 mm 3 m/S 743 mmHg 73%
    19:00 -4°C° 0 mm 3 m/S 742 mmHg 73%
    20:00 -4°C° 0 mm 3 m/S 742 mmHg 73%
    21:00 -4°C° 0 mm 3 m/S 742 mmHg 73%
    22:00 -4°C° 0 mm 3 m/S 742 mmHg 73%
    23:00 -4°C° 0 mm 3 m/S 741 mmHg 72%

    28 Januar, Dienstag

    Zeit Temperatur Niederschläge Wind Luftdruck Luftfeuchtigkeit
    00:00 -4°C° 0 mm 3 m/S 741 mmHg 72%
    01:00 -2°C° 0 mm 3 m/S 741 mmHg 74%
    02:00 -2°C° 0 mm 3 m/S 740 mmHg 76%
    03:00 -2°C° 0 mm 3 m/S 740 mmHg 78%
    04:00 -2°C° 0 mm 3 m/S 739 mmHg 83%
    05:00 -2°C° 0 mm 3 m/S 739 mmHg 88%
    06:00 -2°C° 0 mm 3 m/S 739 mmHg 92%
    07:00 -2°C° 0 mm 3 m/S 739 mmHg 94%
    08:00 -1°C° 0 mm 3 m/S 739 mmHg 95%
    09:00 -1°C° 0 mm 3 m/S 738 mmHg 96%
    10:00 -1°C° 0 mm 4 m/S 738 mmHg 91%
    11:00 -1°C° 0 mm 4 m/S 738 mmHg 87%
    12:00 0°C° 0 mm 4 m/S 738 mmHg 82%
    13:00 0°C° 0 mm 4 m/S 738 mmHg 82%
    14:00 +1°C° 0 mm 4 m/S 738 mmHg 82%
    15:00 +1°C° 0 mm 4 m/S 737 mmHg 81%
    16:00 +1°C° 0 mm 4 m/S 737 mmHg 83%
    17:00 0°C° 0 mm 4 m/S 737 mmHg 85%
    18:00 0°C° 0 mm 4 m/S 737 mmHg 87%
    19:00 0°C° 0 mm 4 m/S 737 mmHg 88%
    20:00 0°C° 0 mm 4 m/S 737 mmHg 89%
    21:00 0°C° 0 mm 4 m/S 737 mmHg 90%
    22:00 0°C° 0.1 mm 4 m/S 737 mmHg 91%
    23:00 0°C° 0.1 mm 4 m/S 737 mmHg 92%
    Mehr zeigen